SL-27 R/B

基本信息
目录编号:
39195
目录名称:
SL-27 R/B
国际标识:
2013-032B
轨道中心:
EARTH
物体状态:
已陨落(2025-10-21)
发射日期:
2013-06-27 UTC
国别:
俄罗斯(独联体) (CIS)
轨道信息
数据来源: 国际轨道数据
星历时间: 2025-10-21T20:05:29+0800
半长轴: 6518.013km
偏心率: 0.0010185
轨道倾角: 74.676°
近地点辐角: 263.815°
升交点赤经: 321.856°
平近点角: 96.196°
近地点: 133.239km
远地点: 146.517km
周期: 87.284分钟
每日圈数: 16.49795
详细信息
发射场:
TTMTR
轨道高度:
LEO
数据来源:
AOE Integration Group
参考系:
TEME
时间系统:
UTC
历元类型:
SGP4
2D轨道图
3D轨道图
轨道高度分析图
轨道倾角分析图
轨道综合分析图
查看轨道综合分析图